Content
SEND FEEDBACK

Daily
Averages
Monthly
Summary
United States of America

ANN ARBOR, MICHIGAN


Home > North America > United States > Michigan
Elevation: 759 feet     Latitude: 42 17N     Longitude: 083 43W

WEATHER
 
SELECT A DAY
Number of Records: 203,415;   Date Range: 1/1/95 - 7/29/14
 
SHARE

PRINT THIS DATA

[ ← Previous Day ]
WEATHER ALMANAC - JUNE 24, 2013
[ Next Day → ]
[ °C ]   °F
We're sorry. There is no daily almanac available for Ann Arbor, Michigan on June 24, 2013.
WEATHER BY HOUR - JUNE 24, 2013
[ °C ]   °F
Local TimeTemperatureDewpointHumidityBarometerVisibilityWind DirectionWind SpeedGust SpeedPrecipitationEventsConditions
1:53 AM72.0 °F63.0 °F73 %30.03 in10.0 miWSW (250°)9.2 mphClear
2:53 AM71.1 °F63.0 °F75 %30.04 in10.0 miSSW (200°)4.6 mphClear
3:53 AM69.1 °F63.0 °F81 %30.05 in10.0 miWest (260°)5.8 mphPartly Cloudy
4:53 AM66.9 °F63.0 °F87 %30.04 in10.0 miCalmClear
5:53 AM64.0 °F62.1 °F93 %30.04 in9.0 miSSW (210°)5.8 mphClear
6:53 AM66.9 °F64.9 °F93 %30.04 in5.0 miSSW (210°)6.9 mphClear
7:53 AM71.1 °F66.9 °F87 %30.05 in6.0 miSSW (200°)3.5 mphClear
8:53 AM75.0 °F68.0 °F79 %30.06 in8.0 miWSW (240°)8.1 mphClear
9:53 AM78.1 °F69.1 °F74 %30.06 in8.0 miSW (230°)11.5 mphClear
10:53 AM80.1 °F70.0 °F71 %30.06 in8.0 miSW (230°)9.2 mphScattered Clouds
11:53 AM82.0 °F69.1 °F65 %30.05 in9.0 miSW (230°)12.7 mph18.4 mphScattered Clouds
12:53 PM84.0 °F70.0 °F63 %30.05 in8.0 miSSW (210°)15.0 mph18.4 mphScattered Clouds
1:11 PM82.4 °F69.8 °F66 %30.06 in8.0 miSW (220°)11.5 mphThunderstormScattered Clouds
1:46 PM84.2 °F69.8 °F62 %30.05 in9.0 miWSW (250°)11.5 mphPartly Cloudy
1:53 PM84.0 °F69.1 °F61 %30.02 in9.0 miWest (260°)12.7 mphPartly Cloudy
2:53 PM84.9 °F68.0 °F57 %29.99 in9.0 miWest (260°)9.2 mphPartly Cloudy
3:53 PM87.1 °F68.0 °F53 %29.97 in10.0 miVariable5.8 mphPartly Cloudy
4:53 PM86.0 °F68.0 °F55 %29.96 in9.0 miWSW (240°)4.6 mphClear
5:53 PM84.0 °F69.1 °F61 %29.94 in10.0 miSSW (210°)9.2 mphScattered Clouds
6:53 PM82.9 °F68.0 °F60 %29.94 in10.0 miSW (220°)6.9 mphClear
7:53 PM82.9 °F68.0 °F60 %29.94 in10.0 miSW (230°)6.9 mphClear
8:53 PM80.1 °F68.0 °F67 %29.93 in10.0 miSSW (200°)5.8 mphClear
9:53 PM78.1 °F66.9 °F68 %29.93 in10.0 miSW (230°)8.1 mphClear
10:53 PM77.0 °F68.0 °F74 %29.94 in10.0 miSW (220°)8.1 mph0.00 inRainLight Rain
11:15 PM78.8 °F66.2 °F65 %29.94 in10.0 miSSW (200°)17.3 mph25.3 mph0.00 inThunderstormThunderstorm
11:31 PM73.4 °F66.2 °F78 %29.94 in10.0 miWSW (240°)3.5 mph0.00 inScattered Clouds
11:53 PM73.0 °F68.0 °F84 %29.93 in10.0 miSW (230°)8.1 mph0.00 inScattered Clouds
Hourly data recorded from KARB, located miles away from Ann Arbor, Michigan







STORIES FROM OUR PARTNERS